![]() |
EMODnet Physics ERDDAP
Easier access to scientific data |
log in|
Brought to you by EMODnet Physics |
| Dataset Title: | NDBC - Collection of dew point temperature (DEWT) TimeSeries - IN SITU MultiPointTimeSeriesObservation
|
| Institution: | NDBC (Dataset ID: TS_DEWT_NDBC) |
| Information: | Summary
| License
| FGDC
| ISO 19115
| Metadata
| Background
| Subset
| Data Access Form
| Make a graph
|
| Name | Last modified | Size | Description | |
|---|---|---|---|---|
| Parent Directory | - | - | ||
| 51000_TS_DEWT_012010.nc | 06-Dec-2024 01:10 | 1262956 | ||
| 51000_TS_DEWT_012011.nc | 06-Dec-2024 01:12 | 4579881 | ||
| 51000_TS_DEWT_012012.nc | 06-Dec-2024 01:18 | 1095952 | ||
| 51000_TS_DEWT_012013.nc | 06-Dec-2024 01:20 | 1029129 | ||
| 51000_TS_DEWT_012014.nc | 06-Dec-2024 01:22 | 1027081 | ||
| 51000_TS_DEWT_012015.nc | 06-Dec-2024 01:23 | 1009550 | ||
| 51000_TS_DEWT_012016.nc | 06-Dec-2024 01:39 | 3483690 | ||
| 51000_TS_DEWT_012017.nc | 06-Dec-2024 01:41 | 4465335 | ||
| 51000_TS_DEWT_012018.nc | 06-Dec-2024 01:43 | 994883 | ||
| 51000_TS_DEWT_012019.nc | 06-Dec-2024 01:45 | 1263354 | ||
| 51000_TS_DEWT_012020.nc | 06-Dec-2024 01:47 | 1267174 | ||
| 51000_TS_DEWT_012021.nc | 06-Dec-2024 01:51 | 3899404 | ||
| 51000_TS_DEWT_012022.nc | 06-Dec-2024 01:55 | 2895178 | ||
| 51000_TS_DEWT_012023.nc | 06-Dec-2024 01:59 | 1110564 | ||
| 51000_TS_DEWT_012025.nc | 07-Feb-2025 09:16 | 1108595 | ||
| 51000_TS_DEWT_012026.nc | 02-Feb-2026 16:00 | 1112808 | ||
| 51000_TS_DEWT_022010.nc | 06-Dec-2024 01:10 | 4906646 | ||
| 51000_TS_DEWT_022011.nc | 06-Dec-2024 01:12 | 1264523 | ||
| 51000_TS_DEWT_022012.nc | 06-Dec-2024 01:18 | 1265158 | ||
| 51000_TS_DEWT_022013.nc | 06-Dec-2024 01:20 | 1112857 | ||
| 51000_TS_DEWT_022014.nc | 06-Dec-2024 01:22 | 5329827 | ||
| 51000_TS_DEWT_022015.nc | 06-Dec-2024 01:25 | 1109729 | ||
| 51000_TS_DEWT_022016.nc | 06-Dec-2024 01:39 | 1110202 | ||
| 51000_TS_DEWT_022017.nc | 06-Dec-2024 01:41 | 1109217 | ||
| 51000_TS_DEWT_022018.nc | 06-Dec-2024 01:43 | 2909969 | ||
| 51000_TS_DEWT_022019.nc | 06-Dec-2024 01:45 | 1114383 | ||
| 51000_TS_DEWT_022020.nc | 06-Dec-2024 01:47 | 1258456 | ||
| 51000_TS_DEWT_022021.nc | 06-Dec-2024 01:51 | 1258476 | ||
| 51000_TS_DEWT_022022.nc | 06-Dec-2024 01:56 | 1111767 | ||
| 51000_TS_DEWT_022023.nc | 06-Dec-2024 02:00 | 1261565 | ||
| 51000_TS_DEWT_022025.nc | 01-Mar-2025 05:02 | 1261936 | ||
| 51000_TS_DEWT_022026.nc | 01-Mar-2026 04:34 | 1261119 | ||
| 51000_TS_DEWT_032010.nc | 06-Dec-2024 01:10 | 3647954 | ||
| 51000_TS_DEWT_032011.nc | 06-Dec-2024 01:12 | 1104844 | ||
| 51000_TS_DEWT_032012.nc | 06-Dec-2024 01:18 | 1106259 | ||
| 51000_TS_DEWT_032013.nc | 06-Dec-2024 01:20 | 1109966 | ||
| 51000_TS_DEWT_032014.nc | 06-Dec-2024 01:22 | 4522511 | ||
| 51000_TS_DEWT_032015.nc | 06-Dec-2024 01:27 | 1113900 | ||
| 51000_TS_DEWT_032016.nc | 06-Dec-2024 01:39 | 1262976 | ||
| 51000_TS_DEWT_032017.nc | 06-Dec-2024 01:41 | 1115362 | ||
| 51000_TS_DEWT_032018.nc | 06-Dec-2024 01:43 | 5374257 | ||
| 51000_TS_DEWT_032019.nc | 06-Dec-2024 01:45 | 1113943 | ||
| 51000_TS_DEWT_032020.nc | 06-Dec-2024 01:47 | 1108976 | ||
| 51000_TS_DEWT_032021.nc | 06-Dec-2024 01:52 | 1107130 | ||
| 51000_TS_DEWT_032022.nc | 06-Dec-2024 01:56 | 5732034 | ||
| 51000_TS_DEWT_032023.nc | 06-Dec-2024 02:00 | 5269763 | ||
| 51000_TS_DEWT_032025.nc | 02-Apr-2025 04:08 | 985072 | ||
| 51000_TS_DEWT_032026.nc | 24-Mar-2026 04:57 | 1265740 | ||
| 51000_TS_DEWT_042009.nc | 06-Dec-2024 01:09 | 1115386 | ||
| 51000_TS_DEWT_042010.nc | 06-Dec-2024 01:11 | 1178068 | ||
| 51000_TS_DEWT_042011.nc | 06-Dec-2024 01:12 | 5651286 | ||
| 51000_TS_DEWT_042012.nc | 06-Dec-2024 01:18 | 5595084 | ||
| 51000_TS_DEWT_042013.nc | 06-Dec-2024 01:20 | 1476848 | ||
| 51000_TS_DEWT_042014.nc | 06-Dec-2024 01:22 | 1469571 | ||
| 51000_TS_DEWT_042015.nc | 06-Dec-2024 01:28 | 1627787 | ||
| 51000_TS_DEWT_042016.nc | 06-Dec-2024 01:39 | 1477108 | ||
| 51000_TS_DEWT_042017.nc | 06-Dec-2024 01:41 | 1627792 | ||
| 51000_TS_DEWT_042018.nc | 06-Dec-2024 01:43 | 1477001 | ||
| 51000_TS_DEWT_042019.nc | 06-Dec-2024 01:46 | 1627781 | ||
| 51000_TS_DEWT_042020.nc | 06-Dec-2024 01:48 | 1627513 | ||
| 51000_TS_DEWT_042021.nc | 06-Dec-2024 01:52 | 1477811 | ||
| 51000_TS_DEWT_042022.nc | 06-Dec-2024 01:56 | 1627831 | ||
| 51000_TS_DEWT_042023.nc | 06-Dec-2024 02:00 | 1475287 | ||
| 51000_TS_DEWT_042025.nc | 01-May-2025 03:37 | 1476864 | ||
| 51000_TS_DEWT_052009.nc | 06-Dec-2024 01:09 | 1471802 | ||
| 51000_TS_DEWT_052010.nc | 06-Dec-2024 01:11 | 591000 | ||
| 51000_TS_DEWT_052011.nc | 06-Dec-2024 01:13 | 1263507 | ||
| 51000_TS_DEWT_052012.nc | 06-Dec-2024 01:19 | 678176 | ||
| 51000_TS_DEWT_052013.nc | 06-Dec-2024 01:20 | 1027753 | ||
| 51000_TS_DEWT_052014.nc | 06-Dec-2024 01:22 | 679293 | ||
| 51000_TS_DEWT_052015.nc | 06-Dec-2024 01:30 | 1116290 | ||
| 51000_TS_DEWT_052016.nc | 06-Dec-2024 01:39 | 1179550 | ||
| 51000_TS_DEWT_052017.nc | 06-Dec-2024 01:41 | 1111604 | ||
| 51000_TS_DEWT_052018.nc | 06-Dec-2024 01:44 | 1019949 | ||
| 51000_TS_DEWT_052019.nc | 06-Dec-2024 01:46 | 1112768 | ||
| 51000_TS_DEWT_052020.nc | 06-Dec-2024 01:48 | 634847 | ||
| 51000_TS_DEWT_052021.nc | 06-Dec-2024 01:52 | 1104718 | ||
| 51000_TS_DEWT_052022.nc | 06-Dec-2024 01:56 | 425633 | ||
| 51000_TS_DEWT_052023.nc | 06-Dec-2024 02:01 | 1109789 | ||
| 51000_TS_DEWT_052025.nc | 01-Jun-2025 06:39 | 1101913 | ||
| 51000_TS_DEWT_062009.nc | 06-Dec-2024 01:09 | 1109212 | ||
| 51000_TS_DEWT_062010.nc | 06-Dec-2024 01:11 | 1112714 | ||
| 51000_TS_DEWT_062011.nc | 06-Dec-2024 01:13 | 1106728 | ||
| 51000_TS_DEWT_062012.nc | 06-Dec-2024 01:19 | 1009577 | ||
| 51000_TS_DEWT_062013.nc | 06-Dec-2024 01:20 | 627200 | ||
| 51000_TS_DEWT_062014.nc | 06-Dec-2024 01:22 | 1266832 | ||
| 51000_TS_DEWT_062015.nc | 06-Dec-2024 01:32 | 1265289 | ||
| 51000_TS_DEWT_062016.nc | 06-Dec-2024 01:39 | 1115978 | ||
| 51000_TS_DEWT_062017.nc | 06-Dec-2024 01:42 | 1157507 | ||
| 51000_TS_DEWT_062018.nc | 06-Dec-2024 01:44 | 1144071 | ||
| 51000_TS_DEWT_062019.nc | 06-Dec-2024 01:46 | 1143154 | ||
| 51000_TS_DEWT_062020.nc | 06-Dec-2024 01:48 | 917318 | ||
| 51000_TS_DEWT_062021.nc | 06-Dec-2024 01:53 | 1026199 | ||
| 51000_TS_DEWT_062022.nc | 06-Dec-2024 01:57 | 1029518 | ||
| 51000_TS_DEWT_062023.nc | 06-Dec-2024 02:01 | 1106598 | ||
| 51000_TS_DEWT_062025.nc | 01-Jul-2025 06:15 | 917375 | ||
| 51000_TS_DEWT_072010.nc | 06-Dec-2024 01:11 | 918098 | ||
| 51000_TS_DEWT_072011.nc | 06-Dec-2024 01:13 | 917932 | ||
| 51000_TS_DEWT_072012.nc | 06-Dec-2024 01:19 | 420550 | ||
| 51000_TS_DEWT_072013.nc | 06-Dec-2024 01:21 | 2924124 | ||
| 51000_TS_DEWT_072014.nc | 06-Dec-2024 01:23 | 1266831 | ||
| 51000_TS_DEWT_072015.nc | 06-Dec-2024 01:33 | 1262852 | ||
| 51000_TS_DEWT_072016.nc | 06-Dec-2024 01:40 | 1115345 | ||
| 51000_TS_DEWT_072017.nc | 06-Dec-2024 01:42 | 607358 | ||
| 51000_TS_DEWT_072018.nc | 06-Dec-2024 01:44 | 1143786 | ||
| 51000_TS_DEWT_072019.nc | 06-Dec-2024 01:46 | 1144763 | ||
| 51000_TS_DEWT_072020.nc | 06-Dec-2024 01:49 | 2967602 | ||
| 51000_TS_DEWT_072021.nc | 06-Dec-2024 01:53 | 1113979 | ||
| 51000_TS_DEWT_072022.nc | 06-Dec-2024 01:57 | 1028892 | ||
| 51000_TS_DEWT_072023.nc | 06-Dec-2024 02:01 | 1112740 | ||
| 51000_TS_DEWT_072025.nc | 01-Aug-2025 06:18 | 994386 | ||
| 51000_TS_DEWT_082010.nc | 06-Dec-2024 01:11 | 995309 | ||
| 51000_TS_DEWT_082013.nc | 06-Dec-2024 01:21 | 1263660 | ||
| 51000_TS_DEWT_082014.nc | 06-Dec-2024 01:23 | 1265870 | ||
| 51000_TS_DEWT_082015.nc | 06-Dec-2024 01:35 | 1264895 | ||
| 51000_TS_DEWT_082016.nc | 06-Dec-2024 01:40 | 1144684 | ||
| 51000_TS_DEWT_082017.nc | 06-Dec-2024 01:42 | 1143921 | ||
| 51000_TS_DEWT_082018.nc | 06-Dec-2024 01:44 | 1144582 | ||
| 51000_TS_DEWT_082019.nc | 06-Dec-2024 01:46 | 1106674 | ||
| 51000_TS_DEWT_082020.nc | 06-Dec-2024 01:49 | 1105281 | ||
| 51000_TS_DEWT_082021.nc | 06-Dec-2024 01:53 | 1105945 | ||
| 51000_TS_DEWT_082022.nc | 06-Dec-2024 01:58 | 995471 | ||
| 51000_TS_DEWT_082023.nc | 06-Dec-2024 02:02 | 995436 | ||
| 51000_TS_DEWT_082025.nc | 01-Sep-2025 05:57 | 996275 | ||
| 51000_TS_DEWT_092009.nc | 06-Dec-2024 01:09 | 1104490 | ||
| 51000_TS_DEWT_092010.nc | 06-Dec-2024 01:11 | 1260311 | ||
| 51000_TS_DEWT_092011.nc | 06-Dec-2024 01:17 | 1112850 | ||
| 51000_TS_DEWT_092012.nc | 06-Dec-2024 01:19 | 996066 | ||
| 51000_TS_DEWT_092013.nc | 06-Dec-2024 01:21 | 1143936 | ||
| 51000_TS_DEWT_092014.nc | 06-Dec-2024 01:23 | 1144086 | ||
| 51000_TS_DEWT_092015.nc | 06-Dec-2024 01:37 | 1260007 | ||
| 51000_TS_DEWT_092016.nc | 06-Dec-2024 01:40 | 1262315 | ||
| 51000_TS_DEWT_092017.nc | 06-Dec-2024 01:42 | 1113900 | ||
| 51000_TS_DEWT_092018.nc | 06-Dec-2024 01:44 | 1144840 | ||
| 51000_TS_DEWT_092019.nc | 06-Dec-2024 01:46 | 1144150 | ||
| 51000_TS_DEWT_092020.nc | 06-Dec-2024 01:49 | 1144052 | ||
| 51000_TS_DEWT_092021.nc | 06-Dec-2024 01:54 | 418800 | ||
| 51000_TS_DEWT_092022.nc | 06-Dec-2024 01:58 | 1111349 | ||
| 51000_TS_DEWT_092023.nc | 06-Dec-2024 02:02 | 1112883 | ||
| 51000_TS_DEWT_092025.nc | 01-Oct-2025 05:39 | 995270 | ||
| 51000_TS_DEWT_102009.nc | 06-Dec-2024 01:10 | 995545 | ||
| 51000_TS_DEWT_102010.nc | 06-Dec-2024 01:11 | 995269 | ||
| 51000_TS_DEWT_102011.nc | 06-Dec-2024 01:17 | 1265100 | ||
| 51000_TS_DEWT_102012.nc | 06-Dec-2024 01:19 | 1265043 | ||
| 51000_TS_DEWT_102013.nc | 06-Dec-2024 01:21 | 1264783 | ||
| 51000_TS_DEWT_102014.nc | 06-Dec-2024 01:23 | 995936 | ||
| 51000_TS_DEWT_102015.nc | 06-Dec-2024 01:38 | 1144454 | ||
| 51000_TS_DEWT_102016.nc | 06-Dec-2024 01:40 | 1143634 | ||
| 51000_TS_DEWT_102017.nc | 06-Dec-2024 01:42 | 1110433 | ||
| 51000_TS_DEWT_102018.nc | 06-Dec-2024 01:45 | 1113654 | ||
| 51000_TS_DEWT_102019.nc | 06-Dec-2024 01:47 | 1034404 | ||
| 51000_TS_DEWT_102020.nc | 06-Dec-2024 01:50 | 995094 | ||
| 51000_TS_DEWT_102021.nc | 06-Dec-2024 01:54 | 995372 | ||
| 51000_TS_DEWT_102022.nc | 06-Dec-2024 01:58 | 994997 | ||
| 51000_TS_DEWT_102023.nc | 06-Dec-2024 02:02 | 639400 | ||
| 51000_TS_DEWT_102025.nc | 01-Nov-2025 06:24 | 1024447 | ||
| 51000_TS_DEWT_112009.nc | 06-Dec-2024 01:10 | 1264825 | ||
| 51000_TS_DEWT_112010.nc | 06-Dec-2024 01:12 | 1115786 | ||
| 51000_TS_DEWT_112011.nc | 06-Dec-2024 01:17 | 1144145 | ||
| 51000_TS_DEWT_112012.nc | 06-Dec-2024 01:19 | 1143923 | ||
| 51000_TS_DEWT_112013.nc | 06-Dec-2024 01:21 | 915877 | ||
| 51000_TS_DEWT_112014.nc | 06-Dec-2024 01:23 | 1262227 | ||
| 51000_TS_DEWT_112015.nc | 06-Dec-2024 01:38 | 4561086 | ||
| 51000_TS_DEWT_112016.nc | 06-Dec-2024 01:40 | 3142227 | ||
| 51000_TS_DEWT_112017.nc | 06-Dec-2024 01:42 | 1027115 | ||
| 51000_TS_DEWT_112018.nc | 06-Dec-2024 01:45 | 3186394 | ||
| 51000_TS_DEWT_112019.nc | 06-Dec-2024 01:47 | 4937893 | ||
| 51000_TS_DEWT_112020.nc | 06-Dec-2024 01:50 | 1264866 | ||
| 51000_TS_DEWT_112021.nc | 06-Dec-2024 01:54 | 4205993 | ||
| 51000_TS_DEWT_112022.nc | 06-Dec-2024 01:59 | 3811207 | ||
| 51000_TS_DEWT_112023.nc | 06-Dec-2024 02:03 | 1112864 | ||
| 51000_TS_DEWT_112024.nc | 17-Jan-2025 16:07 | 4708573 | ||
| 51000_TS_DEWT_112025.nc | 01-Dec-2025 10:16 | 1114260 | ||
| 51000_TS_DEWT_122009.nc | 06-Dec-2024 01:10 | 5368190 | ||
| 51000_TS_DEWT_122010.nc | 06-Dec-2024 01:12 | 1106109 | ||
| 51000_TS_DEWT_122011.nc | 06-Dec-2024 01:18 | 2694885 | ||
| 51000_TS_DEWT_122012.nc | 06-Dec-2024 01:20 | 1258326 | ||
| 51000_TS_DEWT_122013.nc | 06-Dec-2024 01:21 | 1110704 | ||
| 51000_TS_DEWT_122014.nc | 06-Dec-2024 01:23 | 1257297 | ||
| 51000_TS_DEWT_122015.nc | 06-Dec-2024 01:38 | 3572890 | ||
| 51000_TS_DEWT_122016.nc | 06-Dec-2024 01:41 | 1027194 | ||
| 51000_TS_DEWT_122017.nc | 06-Dec-2024 01:43 | 1108812 | ||
| 51000_TS_DEWT_122018.nc | 06-Dec-2024 01:45 | 4581519 | ||
| 51000_TS_DEWT_122019.nc | 06-Dec-2024 01:47 | 1265248 | ||
| 51000_TS_DEWT_122020.nc | 06-Dec-2024 01:50 | 1113713 | ||
| 51000_TS_DEWT_122021.nc | 06-Dec-2024 01:55 | 493908 | ||
| 51000_TS_DEWT_122022.nc | 06-Dec-2024 01:59 | 5283574 | ||
| 51000_TS_DEWT_122023.nc | 06-Dec-2024 02:03 | 1111755 | ||
| 51000_TS_DEWT_122024.nc | 22-Jan-2025 22:55 | 1106827 | ||
| 51000_TS_DEWT_122025.nc | 01-Jan-2026 04:21 | 5512955 | ||